Location: ???????
(56.2167°N, 38.0500°E)
Time: 03:37:04
(UTC+00:00)

Cosmos 2218 Rocket - Pass Details

Date: 19 May 2025
Orbit: 954 x 1006 km, 82.9° (Epoch: 19 June)

Event Time Altitude Azimuth Distance (km) Brightness Sun altitude
Rises 18:45:19 0° 348° (NNW) 3,745 8.4 -6.8°
Reaches altitude 10° 18:47:52 10° 349° (NNW) 2,787 7.6 -7.0°
Maximum altitude 18:54:18 85° 79° (ENE) 1,007 4.1 -7.5°
Drops below altitude 10° 19:00:37 10° 168° (SSE) 2,738 5.8 -8.0°
Enters shadow 19:01:15 - 168° (SSE) 2,974 6.0 -8.1°
